Retour au catalogue

STARLINK-34879

ActifCommunicationsVLEO
NORAD 65377·PAYLOAD·🇺🇸 United States

Lancé Aug 28, 2025 depuis Cape Canaveral Space Force Station

Loading…

Prochains Passages (prochaines 24 heures)

TLE

FraisSource: CelesTrak SupGP

Époque: Sep 15, 2026, 04:07 UTC

1 65377C 25190AC  26258.17201389  .00071430  00000+0  21103-2 0  2580
2 65377  53.1593   6.6184 0001301  89.6838 353.4607 15.34356936    12

Suivez STARLINK-34879 en temps réel avec AllMySat

Download on the App Store